Probability
65 65 65 65 65 68 68 68 68 68 68 65 68 65 65 61 71 81 77 77 71 68 65 58 58 58 52 52 45 45 45 45 45 32 32 42 52 45 39 42 45 42 26
65 65 65 65 61 61 61 58 61 65 65 68 68 68 68 65 71 77 68 65 61 65 65 65 61 58 58 55 52 45 48 48 45 48 42 42 45 42 45 42 42 32 39
65 65 61 61 61 61 58 61 61 61 61 61 65 68 68 65 65 65 71 65 61 65 55 58 58 58 58 55 55 45 48 42 48 42 42 45 42 35 45 42 29 45 26
65 65 61 61 61 58 55 55 58 55 58 58 61 61 58 58 58 61 61 61 61 55 58 58 58 58 61 45 48 48 48 45 48 39 32 29 39 39 45 29 29 29 29
61 61 61 61 55 55 55 55 58 55 45 48 52 55 52 45 45 55 52 48 48 45 45 48 52 48 39 48 42 45 48 42 42 35 26 29 26 35 23 23 23 26 32
65 61 55 55 55 55 52 48 52 45 52 52 52 45 48 35 29 23 45 52 48 48 45 45 45 42 19 6 3 3 13 35 35 35 26 23 35 26 29 19 26 26 16
61 61 58 61 52 52 45 45 48 45 42 45 45 45 48 45 19 10 6 42 39 45 48 42 35 19 23 39 13 3 3 0 3 39 29 29 26 23 26 16 29 29 32
61 58 58 55 52 52 48 52 48 45 42 45 45 45 45 42 26 6 3 35 45 48 42 35 29 32 26 32 29 29 32 19 10 6 26 29 23 26 26 26 26 23 29
52 45 42 48 45 45 48 48 48 45 45 45 42 45 48 42 16 6 0 39 39 35 32 32 29 29 16 3 26 29 29 26 3 0 0 3 0 0 13 23 23 26 23
39 39 35 29 32 32 39 39 39 39 42 39 39 42 39 35 16 0 0 23 29 29 32 32 16 23 13 0 23 26 23 26 23 16 3 3 3 6 0 16 19 19 23
29 29 29 29 32 32 32 35 35 32 35 32 32 32 32 29 16 3 0 16 16 23 26 29 26 0 0 0 3 19 16 10 16 19 16 16 16 16 16 19 19 13 13
29 29 29 29 26 29 32 29 26 26 26 23 23 23 23 19 16 3 0 0 10 13 16 16 16 0 0 0 0 3 3 3 3 6 10 13 16 19 16 16 23 23 26
26 26 23 23 23 26 26 26 26 26 23 19 16 16 13 13 13 0 0 0 0 6 6 6 0 0 0 0 0 0 3 3 3 6 10 6 10 16 16 19 23 19 19
26 23 23 23 19 23 29 23 23 23 23 13 13 13 10 10 10 6 0 0 0 0 3 3 0 0 0 0 0 0 6 6 6 3 3 3 13 6 13 19 23 16 16
23 23 19 19 19 19 19 16 16 19 13 13 13 13 13 13 6 6 6 3 3 3 3 3 3 3 6 6 6 6 6 6 6 6 3 3 6 10 10 13 13 13 10
26 19 16 16 16 13 10 10 0 3 3 6 10 10 10 10 0 0 0 0 0 0 3 3 3 3 3 3 3 6 6 6 6 6 6 6 3 3 3 6 13 10 10
19 19 19 13 13 10 10 10 6 0 0 0 0 0 3 0 0 0 0 0 0 0 3 6 6 6 6 6 6 6 6 10 10 10 6 6 3 3 3 3 3 10 10
16 13 10 13 10 10 10 10 6 6 6 6 0 0 0 0 0 0 0 0 0 0 6 6 6 6 6 6 6 6 3 3 3 6 3 3 3 0 0 0 0 0 6
13 10 10 10 6 10 6 6 6 6 6 6 0 0 0 0 0 0 0 3 3 0 3 3 3 6 6 0 0 0 0 0 0 0 0 3 3 0 0 3 3 0 0
19 6 6 6 3 6 6 3 3 0 0 3 0 0 0 0 0 0 0 3 0 0 0 0 0 0 0 0 0 0 0 0 0 0 0 0 3 3 6 6 6 6 6
6 3 3 3 3 3 3 3 3 0 0 0 0 0 0 0 0 0 0 0 0 0 0 0 0 0 0 0 0 0 0 0 3 0 0 0 0 0 0 3 3 3 3
6 3 3 3 3 3 3 3 6 3 0 0 0 0 0 0 0 0 0 0 0 0 0 0 0 0 0 0 0 0 0 0 0 0 0 0 0 0 3 0 0 0 3
3 3 3 3 3 3 3 3 3 3 3 0 0 0 0 0 0 0 0 0 0 0 0 0 0 0 0 0 0 0 0 0 0 0 0 0 0 0 0 0 0 0 0
3 3 3 3 3 3 3 3 3 0 0 0 0 0 0 0 0 0 0 0 0 0 0 0 0 0 0 0 0 0 0 0 0 0 0 0 0 0 0 0 0 0 0
3 3 3 0 0 0 0 0 0 3 0 0 0 0 0 0 0 0 0 0 0 0 0 0 0 0 0 0 0 0 0 0 0 0 0 0 0 0 0 0 0 0 0
0 0 0 0 0 0 0 0 0 0 0 0 0 0 0 0 0 0 0 0 0 0 0 0 0 0 0 0 0 0 0 0 0 0 0 0 0 0 0 0 0 0 0
Height
5874 5873 5873 5873 5872 5872 5872 5872 5872 5872 5872 5871 5871 5871 5871 5870 5870 5870 5870 5869 5868 5868 5868 5867 5867 5867 5866 5866 5865 5865 5864 5864 5864 5863 5862 5862 5861 5860 5859 5858 5857 5857 5856
5869 5869 5868 5868 5868 5867 5867 5867 5867 5867 5867 5867 5866 5866 5866 5865 5865 5865 5864 5864 5863 5862 5862 5861 5860 5860 5860 5860 5859 5859 5858 5858 5857 5857 5856 5855 5855 5854 5853 5852 5851 5850 5850
5864 5863 5863 5863 5862 5862 5862 5861 5861 5861 5861 5861 5861 5861 5861 5860 5860 5859 5859 5858 5857 5856 5855 5855 5854 5854 5854 5853 5853 5852 5852 5851 5851 5850 5849 5848 5848 5847 5846 5845 5844 5843 5843
5857 5857 5857 5857 5857 5856 5856 5856 5856 5856 5855 5855 5855 5855 5855 5854 5854 5853 5852 5852 5851 5850 5849 5848 5848 5848 5847 5846 5846 5845 5845 5844 5843 5842 5842 5841 5840 5839 5838 5837 5836 5836 5835
5851 5851 5851 5851 5850 5850 5850 5850 5849 5849 5849 5849 5848 5848 5848 5848 5847 5846 5846 5845 5844 5843 5842 5842 5841 5840 5840 5839 5839 5838 5837 5836 5835 5834 5833 5832 5831 5830 5829 5829 5828 5828 5827
5844 5844 5844 5843 5843 5843 5843 5842 5842 5842 5841 5841 5841 5840 5840 5840 5839 5839 5838 5837 5836 5835 5834 5834 5833 5833 5832 5831 5830 5829 5828 5827 5827 5826 5824 5824 5823 5821 5820 5819 5819 5819 5818
5836 5836 5836 5836 5835 5835 5835 5834 5834 5833 5833 5832 5832 5832 5832 5831 5831 5831 5830 5829 5828 5827 5826 5825 5824 5824 5823 5822 5821 5820 5819 5818 5817 5816 5815 5814 5813 5812 5811 5810 5809 5809 5808
5828 5828 5828 5828 5827 5827 5827 5826 5825 5825 5824 5823 5823 5823 5822 5822 5822 5821 5820 5820 5819 5818 5817 5816 5815 5814 5813 5812 5811 5810 5809 5807 5807 5805 5804 5804 5803 5802 5801 5800 5799 5798 5798
5819 5819 5819 5819 5818 5818 5818 5817 5816 5816 5815 5813 5813 5813 5813 5812 5812 5811 5811 5810 5809 5809 5807 5806 5805 5804 5802 5801 5800 5799 5798 5797 5795 5794 5793 5792 5792 5791 5790 5789 5788 5788 5787
5809 5809 5809 5809 5809 5809 5808 5808 5807 5806 5806 5805 5804 5804 5803 5802 5802 5802 5801 5800 5800 5799 5798 5796 5795 5793 5792 5790 5789 5788 5787 5785 5784 5783 5782 5781 5780 5779 5778 5778 5777 5776 5776
5799 5799 5799 5799 5799 5799 5799 5798 5797 5796 5796 5795 5794 5794 5793 5793 5792 5792 5791 5790 5789 5788 5787 5785 5784 5782 5780 5778 5777 5776 5775 5774 5772 5771 5770 5769 5768 5767 5767 5766 5765 5764 5764
5787 5788 5789 5789 5789 5788 5788 5788 5787 5786 5785 5784 5784 5784 5783 5783 5782 5782 5781 5780 5778 5777 5776 5775 5773 5771 5769 5767 5765 5764 5763 5761 5760 5759 5758 5757 5756 5755 5755 5754 5753 5753 5752
5776 5777 5777 5777 5777 5777 5777 5777 5776 5775 5774 5774 5774 5774 5773 5773 5772 5771 5770 5769 5767 5766 5764 5763 5761 5759 5757 5755 5754 5752 5750 5749 5748 5747 5746 5745 5744 5743 5743 5742 5741 5741 5740
5765 5765 5765 5766 5766 5766 5766 5765 5765 5765 5765 5764 5764 5763 5763 5762 5761 5760 5759 5757 5756 5754 5752 5751 5749 5747 5745 5744 5742 5740 5738 5737 5735 5734 5733 5733 5732 5731 5731 5730 5729 5729 5728
5753 5754 5754 5754 5754 5754 5755 5755 5755 5755 5754 5754 5754 5753 5752 5752 5750 5749 5748 5746 5744 5742 5740 5739 5737 5735 5733 5731 5729 5728 5726 5724 5723 5722 5721 5720 5720 5719 5719 5718 5717 5717 5716
5741 5742 5742 5743 5743 5744 5744 5744 5743 5743 5743 5743 5742 5742 5741 5740 5739 5737 5736 5734 5733 5731 5729 5727 5725 5722 5720 5718 5716 5715 5713 5712 5710 5709 5708 5708 5707 5707 5706 5705 5705 5704 5704
5730 5730 5731 5732 5732 5733 5733 5732 5732 5732 5732 5732 5731 5731 5730 5729 5728 5726 5725 5723 5721 5719 5717 5715 5712 5710 5708 5706 5704 5703 5702 5700 5698 5697 5696 5695 5694 5693 5693 5692 5692 5691 5691
5719 5720 5720 5721 5721 5721 5722 5722 5721 5721 5721 5720 5720 5719 5719 5717 5716 5715 5713 5712 5710 5708 5705 5703 5701 5698 5696 5694 5693 5691 5690 5688 5687 5685 5684 5683 5682 5681 5680 5679 5679 5678 5678
5709 5710 5710 5711 5711 5711 5711 5711 5711 5711 5710 5710 5709 5708 5707 5706 5705 5703 5702 5700 5698 5696 5694 5691 5689 5687 5685 5683 5681 5679 5678 5677 5675 5674 5672 5671 5670 5668 5667 5666 5666 5665 5665
5700 5701 5701 5701 5701 5701 5701 5701 5701 5701 5700 5699 5698 5697 5696 5695 5694 5692 5690 5689 5687 5685 5683 5680 5678 5676 5674 5672 5670 5668 5667 5665 5663 5662 5660 5659 5658 5657 5655 5654 5653 5653 5652
5692 5692 5693 5693 5692 5692 5691 5691 5691 5690 5689 5689 5688 5687 5686 5684 5683 5681 5679 5677 5675 5673 5671 5669 5667 5665 5663 5661 5660 5658 5656 5654 5652 5650 5649 5647 5646 5645 5644 5643 5642 5641 5641
5684 5684 5684 5684 5684 5683 5682 5682 5682 5681 5680 5679 5678 5677 5675 5674 5672 5670 5669 5667 5665 5663 5661 5659 5657 5655 5653 5651 5649 5647 5645 5643 5641 5639 5638 5637 5636 5634 5633 5632 5631 5631 5630
5676 5676 5676 5676 5675 5674 5674 5673 5673 5672 5671 5670 5669 5667 5666 5664 5663 5661 5659 5657 5655 5653 5651 5649 5647 5645 5643 5641 5639 5637 5635 5634 5632 5630 5628 5627 5625 5624 5623 5622 5621 5620 5619
5668 5668 5668 5667 5667 5666 5665 5664 5663 5663 5662 5661 5660 5658 5657 5655 5654 5652 5650 5648 5646 5644 5642 5640 5638 5636 5634 5632 5630 5628 5626 5624 5622 5620 5618 5616 5615 5614 5612 5611 5610 5610 5609
5661 5661 5660 5659 5658 5657 5656 5655 5655 5654 5653 5652 5651 5649 5648 5647 5645 5643 5641 5639 5637 5636 5634 5631 5629 5627 5625 5623 5621 5619 5617 5614 5612 5610 5608 5606 5605 5603 5602 5602 5601 5600 5599
5654 5654 5653 5652 5651 5650 5649 5648 5647 5646 5645 5644 5643 5641 5640 5638 5636 5634 5633 5631 5629 5627 5625 5623 5621 5619 5617 5615 5612 5610 5608 5605 5602 5600 5598 5596 5594 5593 5592 5591 5590 5590 5589
Wind_Speed
16 16 16 16 16 15 15 16 17 17 17 18 18 18 19 20 20 20 20 21 22 22 21 22 22 21 22 22 21 21 21 21 22 22 23 23 23 23 23 24 23 23 23
18 18 18 18 18 18 17 18 19 19 19 20 20 20 20 21 21 21 21 21 21 22 22 23 23 23 23 23 23 23 23 23 24 24 25 25 25 25 25 25 25 25 25
20 20 20 20 20 20 19 20 21 21 22 22 22 23 22 22 23 23 23 23 23 23 23 23 23 24 24 25 25 25 26 26 26 26 26 27 27 27 27 27 27 27 27
22 22 22 22 22 22 22 23 23 24 24 24 25 25 25 25 25 26 25 25 25 25 24 25 25 26 27 27 27 27 28 28 28 28 28 29 29 29 29 29 29 29 29
24 24 24 24 24 24 24 25 26 27 27 27 27 28 28 27 27 28 29 29 28 27 27 27 27 28 29 29 30 30 30 30 30 30 31 31 31 31 31 32 32 32 32
26 26 27 27 26 27 27 27 28 29 30 31 31 31 30 30 30 29 30 31 32 31 30 30 30 30 31 32 32 33 33 33 33 33 33 33 33 33 33 34 34 34 33
29 29 29 28 28 29 29 30 31 31 32 32 33 33 33 33 32 32 33 33 33 32 32 33 33 34 34 34 35 35 36 36 35 34 34 34 34 35 36 35 35 35 34
31 31 31 31 30 31 31 32 32 32 33 34 35 35 35 35 35 34 34 34 34 34 34 34 35 36 36 37 37 37 38 37 37 37 36 37 37 36 37 37 36 37 37
33 33 33 33 34 34 33 33 33 33 34 34 35 35 35 36 36 35 34 35 35 35 35 35 36 36 37 38 39 39 39 39 39 38 38 39 39 39 38 38 38 39 39
34 34 35 35 35 35 35 35 34 35 34 35 35 36 36 35 35 35 35 35 36 36 36 36 37 38 39 39 40 41 41 39 39 39 39 40 40 40 40 39 39 40 39
36 36 36 37 37 37 37 37 36 36 37 36 36 36 36 35 34 35 35 36 37 37 38 38 38 39 39 40 41 40 40 39 39 39 40 40 40 40 40 40 40 39 39
38 37 37 38 39 39 39 39 39 38 38 37 36 35 35 35 35 36 38 38 38 39 39 39 39 40 40 41 40 41 41 40 40 41 41 41 41 40 40 39 39 39 39
39 39 38 38 39 39 39 39 39 39 38 37 37 37 36 35 36 37 38 39 39 40 40 40 40 39 39 39 40 40 40 40 40 40 41 41 40 40 40 39 39 39 39
39 39 38 38 39 39 39 38 38 38 37 35 36 36 36 37 38 38 38 39 40 40 40 40 40 40 41 41 40 40 40 39 40 40 40 40 39 39 40 40 40 39 39
38 38 38 39 38 38 39 39 38 37 36 36 36 37 37 37 38 39 39 39 39 40 41 41 41 41 41 41 42 42 41 40 39 40 40 40 40 39 40 40 40 40 40
38 38 38 38 38 38 37 38 38 37 37 37 37 37 38 38 38 38 38 38 39 39 39 40 41 41 41 41 41 40 39 38 38 38 39 40 40 40 40 40 40 40 40
36 36 36 36 36 37 37 38 37 37 37 38 38 38 38 38 38 38 38 38 39 39 40 40 39 40 41 40 39 38 37 36 36 37 38 39 39 39 40 40 40 40 40
34 34 34 35 37 37 37 37 36 35 36 36 36 36 37 37 38 38 38 38 38 39 39 40 40 40 39 37 37 36 36 36 36 36 37 38 38 39 40 40 40 40 40
33 33 33 34 35 35 34 33 33 34 34 34 35 36 37 37 37 37 37 37 37 37 38 38 38 37 36 36 35 35 35 35 36 36 36 37 37 38 38 39 39 39 39
31 31 30 30 31 31 31 32 33 34 34 34 35 35 36 36 36 36 37 36 36 37 36 36 35 35 34 34 34 34 34 35 35 36 36 36 36 36 37 37 37 37 37
28 28 28 28 28 29 30 31 31 31 32 33 33 34 34 35 35 35 36 36 35 34 33 33 33 33 33 32 33 34 34 34 34 34 34 34 34 34 34 34 34 34 34
26 26 26 27 27 28 29 30 31 31 32 32 32 33 34 33 32 32 32 32 31 31 31 32 32 32 33 33 33 33 33 33 33 32 32 32 32 32 32 32 32 32 33
25 25 26 28 28 28 29 30 31 31 31 31 31 31 30 30 29 29 29 30 30 30 30 31 31 31 32 31 31 31 31 31 31 31 31 31 31 32 31 31 31 31 31
24 24 25 27 27 28 28 28 28 28 29 29 29 29 28 28 28 28 29 29 29 29 29 29 29 29 28 28 29 29 30 30 30 30 30 30 31 31 31 30 31 31 31
22 22 23 23 24 24 24 24 25 26 26 27 27 27 27 27 27 28 28 28 27 27 26 26 26 26 27 28 28 28 28 28 28 29 30 30 31 30 30 30 30 30 30
19 19 21 21 21 22 22 21 22 23 24 24 25 25 26 27 26 26 27 27 26 26 25 25 24 25 25 26 26 27 27 27 28 28 28 29 29 29 29 29 28 28 28
Wind_Direction
271 271 272 270 270 271 266 262 265 266 266 266 267 267 269 269 270 272 273 272 271 271 273 272 271 272 274 275 274 276 279 280 280 279 279 279 281 280 280 279 278 277 277
270 270 271 272 271 270 267 263 264 265 265 265 266 268 267 269 270 272 273 273 273 274 275 274 272 272 273 274 275 276 278 279 280 279 280 280 280 280 281 279 278 278 279
269 269 270 272 270 268 268 265 264 264 265 264 266 266 268 269 271 273 273 274 275 276 275 274 272 271 272 274 275 277 278 279 279 279 280 281 281 280 280 279 278 278 279
268 269 270 271 269 268 268 268 266 264 265 264 265 267 268 270 271 272 273 274 274 277 274 273 274 273 274 274 275 276 278 278 278 278 279 279 279 279 278 278 278 278 278
268 270 271 270 269 268 268 267 266 266 265 265 265 266 267 269 270 271 272 273 273 275 275 275 275 274 274 274 276 276 278 279 279 278 278 277 278 278 278 277 278 277 277
266 268 270 269 269 269 268 268 268 268 267 266 266 266 266 267 269 270 272 273 272 272 274 276 275 275 276 275 277 276 277 278 279 278 278 277 276 277 278 278 278 278 278
266 268 270 270 270 271 270 270 270 270 269 269 268 267 266 268 269 271 272 272 272 272 274 275 276 276 277 277 277 277 278 278 277 276 276 276 276 276 277 277 278 279 278
267 269 270 271 272 272 273 272 270 270 271 271 270 269 269 269 269 270 271 272 272 274 275 276 278 279 277 276 277 278 279 277 277 276 276 276 276 277 277 276 275 277 277
265 267 268 270 272 273 272 272 270 270 272 272 270 270 270 271 270 269 271 272 273 274 276 277 279 280 278 277 277 278 278 278 277 276 277 277 277 276 276 276 276 276 275
264 265 267 268 271 271 271 272 270 269 271 272 271 270 271 272 271 270 272 273 274 276 277 278 279 279 279 278 277 278 278 277 275 275 275 276 275 275 275 275 275 276 274
263 265 267 268 269 270 270 270 270 270 272 271 270 271 271 271 271 272 274 275 276 277 278 279 278 279 279 278 277 277 277 275 276 276 276 276 275 275 274 275 275 274 273
263 264 266 267 268 269 268 268 269 272 272 272 271 272 272 273 274 274 275 275 276 277 279 280 279 279 280 279 278 277 277 275 275 276 276 276 276 276 276 276 275 275 275
264 265 266 267 267 267 267 267 268 270 271 271 271 272 273 275 276 277 278 278 277 277 278 278 278 279 279 280 280 279 278 277 276 275 274 274 275 275 275 275 274 275 276
264 265 266 267 265 264 266 267 268 269 270 271 272 273 274 275 277 278 280 280 279 278 278 278 279 281 281 280 280 279 278 277 274 274 273 273 273 274 273 273 274 274 274
264 265 265 267 267 267 267 266 267 269 270 272 273 274 275 276 278 279 279 281 281 279 279 279 279 279 280 280 280 279 278 276 276 274 273 273 273 273 272 272 272 272 273
263 263 264 265 266 267 267 267 267 268 269 270 272 274 275 277 278 279 279 280 281 280 280 280 280 280 280 280 280 279 278 278 278 277 275 273 272 271 271 271 271 271 272
263 264 264 265 266 267 268 267 267 269 270 270 271 274 276 277 278 279 279 279 279 280 280 281 281 282 282 280 279 278 278 278 278 278 277 275 273 271 270 271 271 271 271
262 263 264 265 266 267 267 267 268 269 270 271 272 274 276 276 277 278 280 280 280 280 280 280 281 282 281 279 278 277 277 276 277 278 278 276 275 272 271 271 272 272 272
262 262 264 265 266 266 266 266 269 270 271 273 274 275 276 278 279 280 280 281 280 280 281 281 281 280 279 278 277 278 278 278 278 278 278 277 276 276 275 273 273 272 272
261 263 265 265 265 267 267 268 271 272 272 273 275 277 279 279 279 279 280 280 280 280 280 280 279 279 279 279 280 280 280 279 279 278 278 278 276 276 276 276 274 273 272
260 262 265 267 268 270 270 271 271 272 274 274 276 278 279 278 278 279 280 280 280 280 280 280 280 280 281 282 282 282 281 281 280 279 279 279 279 278 277 276 275 274 273
263 265 266 269 272 273 273 274 275 276 278 278 277 278 279 279 280 282 282 282 281 281 281 281 280 281 283 284 283 282 281 281 281 279 279 281 280 279 277 276 275 274 274
264 266 268 269 272 274 275 276 276 277 278 278 278 280 281 282 282 284 284 284 284 283 284 284 283 283 283 282 282 282 282 282 282 281 280 279 279 278 276 275 275 275 274
269 269 271 273 273 275 275 275 275 276 277 278 279 279 281 282 283 284 285 286 285 286 287 286 285 285 283 282 283 284 285 285 283 281 280 279 278 276 275 274 273 274 274
272 273 275 278 278 278 278 277 276 276 278 279 279 280 281 283 284 285 286 286 286 286 286 286 286 286 286 286 286 286 285 285 286 285 283 281 279 278 277 277 276 275 274
275 278 280 281 281 281 280 280 279 279 279 279 280 280 282 284 285 285 286 286 285 286 286 287 287 288 288 288 289 289 289 288 287 286 284 283 281 280 280 280 278 276 275